Location: Briarstone Lake
(43.1454°N, 93.2359°W)
Time: 22:47:19
(UTC+00:00)

ISS - Visible Passes

Search period start: 16 January 2026 00:00
Search period end: 26 January 2026 00:00
Orbit: 413 x 424 km, 51.6° (Epoch: 16 January)

Date Brightness Start Highest point End Pass type
(mag) Time Alt. Az. Time Alt. Az. Time Alt. Az.
16 Jan -1.4 01:24:42 10° WNW 01:26:21 20° NW 01:26:21 20° NW visible
17 Jan -2.4 00:36:36 10° W 00:39:37 30° NNW 00:40:36 25° NNE visible
17 Jan -2.9 23:48:33 10° W 23:51:44 41° NNW 23:54:49 11° NE visible
18 Jan -1.1 01:26:39 10° NW 01:27:45 15° NW 01:27:45 15° NW visible
19 Jan -2.0 00:38:31 10° WNW 00:41:10 21° N 00:41:55 19° N visible
19 Jan -2.1 23:50:21 10° WNW 23:53:11 24° NNW 23:56:00 10° NE visible
20 Jan -1.0 01:28:15 10° NW 01:29:01 14° NNW 01:29:01 14° NNW visible
21 Jan -1.9 00:40:15 10° NW 00:42:43 19° N 00:43:08 18° N visible
21 Jan -1.9 23:52:09 10° NW 23:54:40 19° N 23:57:10 10° NE visible
22 Jan -1.1 01:29:24 10° NW 01:30:13 15° NNW 01:30:13 15° NNW visible
23 Jan -2.1 00:41:34 10° NW 00:44:11 21° N 00:44:21 21° NNE visible
23 Jan -1.9 23:53:36 10° NW 23:56:06 19° N 23:58:31 10° NE visible
24 Jan -1.4 01:30:19 10° NW 01:31:28 19° NW 01:31:28 19° NW visible
25 Jan -2.7 00:42:29 10° NW 00:45:30 30° NNE 00:45:42 30° NNE visible
